User: anonymous   Login
Location: Unspecified
(0.0000°N, 0.0000°E)
Time: 15:25:07
(UTC+00:00)
Language:

SWISSCUBE - Orbit

View from above orbital plane
View from above orbital plane
View from above satellite
View from above satellite

Ground track
Ground track

The orbit data is extracted from the following two-line orbital elements,

1 35932U 09051B   14295.10956053  .00002204  00000-0  52581-3 0  4411
2 35932 098.3901 047.7011 0007466 359.0150 001.1031 14.54688291269348
Epoch (UTC): 22 October 2014 02:37:46
Eccentricity: 0.0007466
inclination: 98.3901°
perigee height: 705 km
apogee height: 715 km
right ascension of ascending node: 47.7011°
argument of perigee: 359.0150°
revolutions per day: 14.54688291
mean anomaly at epoch: 1.1031°
orbit number at epoch: 26934

The dashed part of the orbit path shows where the satellite is in the earth's shadow,  

DLR